Regional Weather Roundup
Issued by NWS

Home | Current Version | Previous Version | Text Only | Print | Product List | Glossary On
Versions: 1 2 3 4 5 6 7 8 9 10 11 12 13 14 15 16 17 18 19 20 21 22 23 24 25 26 27 28 29 30 31 32 33 34 35 36 37 38 39 40 41 42 43 44 45 46 47 48 49 50
254
ASUS44 KJAN 250910
RWRMS

MISSISSIPPI HOURLY WEATHER ROUNDUP
NATIONAL WEATHER SERVICE JACKSON MS
400 AM CDT FRI APR 25 2014

NOTE: "FAIR: INDICATES FEW OR NO CLOUDS BELOW 12,000 FEET WITH NO
SIGNIFICANT WEATHER AND/OR OBSTRUCTIONS TO VISIBILITY.

MSZ001>002-007>008-010>013-018>021-025>028-034>036-251000-
NORTHWEST MISSISSIPPI

CITY           SKY/WX    TMP DP  RH WIND       PRES   REMARKS
CLARKSDALE       N/A     59  57  94 W10       29.87R
CLEVELAND      FAIR      59  56  87 NW9       29.87S
GREENWOOD      CLEAR     60  56  86 CALM      29.87R
GREENVILLE     CLEAR     60  53  77 W7        29.89R
GRENADA        FAIR      59  55  88 CALM      29.87R
OLIVE BRANCH   CLOUDY    59  59 100 W18G24    29.83R
OXFORD         FAIR      57  54  88 W6        29.86R
TUNICA         MOSUNNY   61  54  77 W10G17    29.86R
$$

MSZ003>006-009-014>017-022>024-029>033-037>039-251000-
NORTHEAST MISSISSIPPI

CITY           SKY/WX    TMP DP  RH WIND       PRES   REMARKS
BELMONT        CLOUDY    62  57  86 W9G23     29.81R
COLUMBUS AFB   CLEAR     64  60  87 W12       29.84R
CORINTH        CLOUDY    63  57  82 W8        29.79R
GOLDN TRIANGLE CLEAR     63  57  82 W6        29.88R
STARKVILLE     FAIR      61  59  94 W3        29.85S
TUPELO         CLEAR     62  56  80 W9G18     29.83R
$$

MSZ040-058-251000-
CENTRAL MISSISSIPPI

CITY           SKY/WX    TMP DP  RH WIND       PRES   REMARKS
JACKSON INTL   MOCLDY    62  60  93 CALM      29.90R
JACKSON HAWKNS PTCLDY    61  58  90 CALM      29.91R
MERIDIAN KEY   CLOUDY    62  58  86 SW5       29.90R
MERIDIAN NAS   MOCLDY    66  59  78 W7        29.88R
RAYMOND        HAZE      61  55  82 CALM      29.91S VSB 1/2
VICKSBURG      CLEAR     67  58  72 NW5       29.91R
$$

MSZ059>079-251000-
SOUTH MISSISSIPPI

CITY           SKY/WX    TMP DP  RH WIND       PRES   REMARKS
BROOKHAVEN     PTSUNNY   66  66 100 W6        29.93R
HATTIESBURG    PTCLDY    69  66  90 SW5       29.91S
MCCOMB         MOCLDY    66  64  93 W3        29.92R FOG
NATCHEZ        CLOUDY    70  64  83 W5        29.91R
PINE BELT      CLOUDY    68  64  88 SW6       29.92R
$$

MSZ080>082-251000-
COASTAL MISSISSIPPI

CITY           SKY/WX    TMP DP  RH WIND       PRES   REMARKS
BILOXI         CLOUDY    72  70  92 SW7       29.92S
PASCAGOULA     CLOUDY    71  68  90 SW6       29.92S
GULFPORT       CLOUDY    74  68  81 VRB3      29.92S
$$



USA.gov is the U.S. government's official web portal to all federal, state and local government web resources and services.